QPF
0.00 0.00 0.00 0.00 0.00 0.00 0.00 0.00 0.00 0.00 0.00 0.00 0.00 0.00 0.00 0.00 0.00 0.00 0.00 0.00 0.00 0.00 0.00 0.00 0.00 0.00 0.00 0.00 0.00 0.00 0.00 0.00 0.00 0.00 0.00 0.00 0.00 0.00 0.00 0.00 0.00 0.00 0.02 0.05
0.00 0.00 0.00 0.00 0.00 0.00 0.00 0.00 0.00 0.00 0.00 0.00 0.00 0.00 0.00 0.00 0.00 0.00 0.00 0.00 0.00 0.00 0.00 0.00 0.00 0.00 0.00 0.00 0.00 0.00 0.00 0.00 0.00 0.00 0.00 0.00 0.00 0.00 0.00 0.00 0.00 0.00 0.04 0.06
0.00 0.00 0.00 0.00 0.00 0.00 0.00 0.00 0.00 0.00 0.00 0.00 0.00 0.00 0.00 0.00 0.00 0.00 0.00 0.00 0.00 0.00 0.00 0.00 0.00 0.00 0.00 0.00 0.00 0.00 0.00 0.00 0.00 0.00 0.00 0.00 0.00 0.00 0.00 0.00 0.00 0.00 0.01 0.02
0.00 0.00 0.00 0.00 0.00 0.00 0.00 0.00 0.00 0.00 0.00 0.00 0.00 0.00 0.00 0.00 0.00 0.00 0.00 0.00 0.00 0.00 0.00 0.00 0.00 0.00 0.00 0.00 0.00 0.00 0.00 0.00 0.00 0.00 0.00 0.00 0.00 0.00 0.00 0.00 0.00 0.00 0.00 0.00
0.00 0.00 0.00 0.00 0.00 0.00 0.00 0.00 0.00 0.00 0.00 0.00 0.00 0.00 0.00 0.00 0.00 0.00 0.00 0.00 0.00 0.00 0.00 0.00 0.00 0.00 0.00 0.00 0.00 0.00 0.00 0.00 0.00 0.00 0.00 0.00 0.00 0.00 0.00 0.00 0.00 0.00 0.02 0.02
0.00 0.00 0.00 0.00 0.00 0.00 0.00 0.00 0.00 0.00 0.00 0.00 0.00 0.00 0.00 0.00 0.00 0.00 0.00 0.00 0.00 0.00 0.00 0.00 0.00 0.00 0.00 0.00 0.00 0.00 0.00 0.00 0.00 0.00 0.00 0.00 0.00 0.00 0.00 0.00 0.00 0.03 0.07 0.08
0.00 0.00 0.00 0.00 0.00 0.00 0.00 0.00 0.00 0.00 0.00 0.00 0.00 0.00 0.00 0.00 0.00 0.00 0.00 0.00 0.00 0.00 0.00 0.00 0.00 0.00 0.00 0.00 0.00 0.00 0.00 0.00 0.00 0.00 0.00 0.00 0.00 0.00 0.00 0.00 0.00 0.03 0.06 0.08
0.00 0.00 0.00 0.00 0.00 0.00 0.00 0.00 0.00 0.00 0.00 0.00 0.00 0.00 0.00 0.00 0.00 0.00 0.00 0.00 0.00 0.00 0.00 0.00 0.00 0.00 0.00 0.00 0.00 0.00 0.00 0.00 0.00 0.00 0.00 0.00 0.00 0.00 0.00 0.00 0.00 0.01 0.07 0.04
0.00 0.00 0.00 0.00 0.00 0.00 0.00 0.00 0.00 0.00 0.00 0.00 0.00 0.00 0.00 0.00 0.00 0.00 0.00 0.00 0.00 0.00 0.00 0.00 0.00 0.00 0.00 0.00 0.00 0.00 0.00 0.00 0.00 0.00 0.00 0.00 0.00 0.00 0.00 0.00 0.00 0.00 0.04 0.01
0.00 0.00 0.00 0.00 0.00 0.00 0.00 0.00 0.00 0.00 0.00 0.00 0.00 0.00 0.00 0.00 0.00 0.00 0.00 0.00 0.00 0.00 0.00 0.00 0.00 0.00 0.00 0.00 0.00 0.00 0.00 0.00 0.00 0.00 0.00 0.00 0.01 0.00 0.00 0.00 0.00 0.00 0.01 0.00
0.00 0.00 0.00 0.00 0.00 0.00 0.00 0.00 0.00 0.00 0.00 0.00 0.00 0.00 0.00 0.00 0.00 0.00 0.00 0.00 0.00 0.00 0.00 0.00 0.00 0.00 0.00 0.00 0.00 0.00 0.00 0.00 0.00 0.00 0.00 0.00 0.01 0.01 0.00 0.00 0.00 0.00 0.00 0.00
0.00 0.00 0.00 0.00 0.00 0.00 0.00 0.00 0.00 0.00 0.00 0.00 0.00 0.00 0.00 0.00 0.00 0.00 0.00 0.00 0.00 0.00 0.00 0.00 0.00 0.00 0.00 0.00 0.00 0.00 0.00 0.00 0.00 0.00 0.00 0.00 0.02 0.02 0.02 0.00 0.00 0.00 0.00 0.00
0.00 0.00 0.00 0.00 0.00 0.00 0.00 0.00 0.00 0.00 0.00 0.00 0.00 0.00 0.00 0.00 0.00 0.00 0.00 0.00 0.00 0.00 0.00 0.00 0.00 0.00 0.00 0.00 0.00 0.00 0.00 0.00 0.00 0.00 0.00 0.01 0.05 0.07 0.04 0.00 0.00 0.00 0.00 0.00
0.01 0.00 0.00 0.00 0.00 0.00 0.00 0.00 0.00 0.00 0.00 0.00 0.00 0.00 0.00 0.00 0.00 0.00 0.00 0.00 0.00 0.00 0.00 0.00 0.00 0.00 0.00 0.00 0.00 0.00 0.00 0.00 0.00 0.00 0.00 0.01 0.04 0.03 0.01 0.00 0.00 0.00 0.00 0.00
0.00 0.00 0.00 0.00 0.00 0.00 0.00 0.00 0.00 0.00 0.00 0.00 0.00 0.00 0.00 0.00 0.00 0.00 0.00 0.00 0.00 0.00 0.00 0.00 0.00 0.00 0.00 0.00 0.00 0.00 0.00 0.00 0.00 0.00 0.00 0.00 0.00 0.00 0.00 0.00 0.00 0.00 0.00 0.00
0.00 0.00 0.00 0.00 0.00 0.00 0.00 0.00 0.00 0.00 0.00 0.00 0.00 0.00 0.00 0.00 0.00 0.00 0.00 0.00 0.00 0.00 0.00 0.00 0.00 0.00 0.00 0.00 0.00 0.00 0.00 0.00 0.00 0.00 0.00 0.00 0.00 0.00 0.00 0.00 0.00 0.00 0.00 0.00
0.01 0.00 0.00 0.00 0.00 0.00 0.00 0.00 0.00 0.00 0.00 0.00 0.00 0.00 0.00 0.00 0.00 0.00 0.00 0.00 0.00 0.00 0.00 0.00 0.00 0.00 0.00 0.00 0.00 0.00 0.00 0.00 0.00 0.00 0.00 0.00 0.00 0.00 0.00 0.00 0.00 0.00 0.00 0.01
0.01 0.01 0.00 0.00 0.00 0.00 0.00 0.00 0.00 0.00 0.00 0.00 0.00 0.00 0.00 0.00 0.00 0.00 0.00 0.00 0.00 0.00 0.00 0.00 0.00 0.00 0.00 0.00 0.00 0.00 0.00 0.00 0.00 0.00 0.00 0.00 0.00 0.00 0.00 0.00 0.00 0.00 0.00 0.02
0.00 0.01 0.00 0.00 0.00 0.00 0.00 0.00 0.00 0.00 0.00 0.00 0.00 0.00 0.00 0.00 0.00 0.00 0.00 0.00 0.00 0.00 0.00 0.00 0.00 0.00 0.00 0.00 0.00 0.00 0.00 0.00 0.00 0.00 0.00 0.00 0.00 0.00 0.00 0.00 0.00 0.00 0.00 0.00
0.00 0.01 0.01 0.00 0.00 0.00 0.00 0.00 0.00 0.00 0.00 0.00 0.00 0.00 0.00 0.00 0.00 0.00 0.00 0.00 0.00 0.00 0.00 0.00 0.00 0.00 0.00 0.00 0.00 0.00 0.00 0.00 0.00 0.00 0.00 0.00 0.00 0.00 0.00 0.00 0.00 0.00 0.00 0.00
0.02 0.01 0.00 0.00 0.01 0.01 0.00 0.00 0.00 0.00 0.00 0.00 0.00 0.00 0.00 0.00 0.00 0.00 0.00 0.00 0.00 0.00 0.00 0.00 0.00 0.00 0.00 0.00 0.00 0.00 0.00 0.00 0.00 0.00 0.00 0.00 0.00 0.00 0.00 0.00 0.00 0.00 0.00 0.00
0.01 0.01 0.01 0.00 0.02 0.01 0.00 0.00 0.00 0.00 0.00 0.00 0.00 0.00 0.00 0.00 0.00 0.00 0.00 0.00 0.00 0.00 0.00 0.00 0.00 0.00 0.00 0.00 0.00 0.00 0.00 0.00 0.00 0.00 0.00 0.00 0.00 0.00 0.00 0.00 0.00 0.00 0.00 0.00
0.01 0.01 0.00 0.00 0.00 0.00 0.00 0.00 0.00 0.00 0.00 0.00 0.00 0.00 0.00 0.00 0.00 0.00 0.00 0.00 0.00 0.00 0.00 0.00 0.00 0.00 0.00 0.00 0.00 0.00 0.00 0.00 0.00 0.00 0.00 0.00 0.00 0.00 0.00 0.00 0.00 0.00 0.00 0.00
0.01 0.01 0.00 0.00 0.00 0.00 0.00 0.00 0.00 0.00 0.00 0.00 0.00 0.00 0.00 0.00 0.00 0.00 0.00 0.00 0.00 0.00 0.00 0.00 0.00 0.00 0.00 0.00 0.00 0.00 0.00 0.00 0.00 0.00 0.00 0.00 0.00 0.00 0.00 0.00 0.00 0.00 0.00 0.00
0.02 0.01 0.01 0.00 0.00 0.00 0.00 0.00 0.00 0.00 0.00 0.00 0.00 0.00 0.00 0.00 0.00 0.00 0.00 0.00 0.00 0.00 0.00 0.00 0.00 0.00 0.00 0.00 0.00 0.00 0.00 0.00 0.00 0.00 0.00 0.00 0.00 0.00 0.00 0.00 0.00 0.00 0.00 0.00
0.01 0.02 0.02 0.01 0.01 0.00 0.00 0.00 0.00 0.00 0.00 0.00 0.00 0.00 0.00 0.00 0.00 0.00 0.00 0.00 0.00 0.00 0.00 0.00 0.00 0.00 0.00 0.00 0.00 0.00 0.00 0.00 0.00 0.00 0.00 0.00 0.00 0.00 0.00 0.00 0.00 0.00 0.00 0.00
MSLP
1006.08 1005.69 1002.74 1000.40 1002.08 1002.25 1002.16 1001.16 1000.40 1000.36 1000.79 1001.18 1000.76 1000.13 999.80 999.80 999.58 999.76 999.44 999.00 998.59 998.31 998.05 998.45 999.30 999.91 1000.41 1001.01 1001.72 1002.59 1003.19 1004.00 1004.58 1005.11 1005.69 1006.55 1007.16 1007.52 1007.72 1008.08 1008.43 1008.72 1008.74 1009.07
1004.80 1002.38 998.35 1001.93 1002.11 1002.00 1001.77 1001.14 1000.09 1000.49 1000.78 1000.99 1000.68 1000.10 999.89 999.68 999.13 998.95 998.56 997.95 997.57 997.51 997.54 997.73 998.96 1000.01 1000.51 1001.05 1001.83 1002.58 1003.51 1004.34 1004.55 1005.00 1005.57 1006.12 1006.55 1006.87 1007.22 1007.59 1008.18 1008.30 1008.58 1008.88
1001.51 997.14 1001.61 1000.64 1000.82 1000.74 1000.28 1000.50 1000.82 1000.97 1001.62 1001.36 1001.35 1000.13 999.71 998.99 998.05 997.50 997.08 997.01 996.93 996.86 996.80 997.43 998.85 999.81 1000.44 1000.99 1001.83 1002.65 1003.41 1004.33 1004.66 1005.11 1006.05 1006.66 1006.95 1007.25 1007.30 1007.41 1007.65 1008.07 1008.28 1008.48
1001.67 1000.33 999.42 999.70 998.90 999.66 999.14 1000.73 1001.53 1001.62 1001.85 1000.44 1001.03 998.52 998.12 997.68 996.85 996.51 996.42 996.24 995.78 995.88 996.16 997.20 998.53 999.69 1000.33 1000.99 1001.89 1002.74 1003.48 1004.19 1004.88 1005.52 1005.72 1006.05 1005.98 1006.19 1006.45 1007.06 1007.41 1007.86 1008.24 1008.23
999.24 999.53 998.98 997.94 996.75 999.31 998.89 1000.55 1001.13 1001.45 1001.18 1001.08 1000.49 999.36 997.14 996.90 995.78 995.26 995.15 994.88 994.80 995.10 995.80 996.75 998.29 999.44 1000.29 1001.15 1001.85 1002.81 1003.58 1004.18 1004.98 1005.43 1005.64 1005.98 1006.17 1006.37 1006.72 1007.11 1007.61 1007.81 1008.08 1008.07
1000.29 999.15 998.46 996.77 998.30 998.68 999.81 1000.46 1000.84 1000.89 1000.65 999.58 999.42 998.72 996.44 995.04 994.28 994.09 993.79 993.78 993.79 995.18 996.35 997.25 998.45 999.61 1000.43 1001.12 1001.99 1002.84 1003.57 1004.33 1005.08 1005.48 1005.83 1006.00 1006.37 1006.60 1006.65 1007.02 1007.13 1007.37 1008.17 1008.25
1000.29 999.06 998.28 997.33 997.37 998.14 999.00 999.48 999.22 999.49 998.90 998.11 998.03 997.11 995.21 994.05 993.58 993.41 993.49 993.43 994.51 995.70 996.57 997.46 998.51 999.36 1000.21 1001.02 1001.86 1002.72 1003.48 1004.39 1005.01 1005.43 1005.80 1006.07 1006.46 1006.79 1006.98 1007.14 1006.93 1007.37 1007.84 1008.09
1000.22 998.47 997.50 996.52 995.68 995.79 996.81 997.31 996.43 996.42 996.79 996.72 996.13 995.51 994.12 993.73 993.04 992.60 992.89 993.45 994.25 995.64 996.48 997.32 998.43 999.26 1000.07 1000.98 1001.85 1002.49 1003.44 1004.32 1004.95 1005.39 1005.72 1006.11 1006.54 1006.33 1006.66 1007.07 1006.92 1006.99 1007.85 1007.58
999.87 997.42 996.25 995.99 995.92 995.41 995.74 995.32 995.74 995.76 996.36 995.95 994.56 994.75 994.08 993.22 992.55 992.25 992.44 993.11 994.13 995.48 996.53 997.47 998.53 999.36 1000.22 1001.07 1001.85 1002.57 1003.37 1004.24 1004.88 1005.30 1005.65 1006.12 1006.47 1006.72 1006.92 1007.26 1007.33 1007.27 1007.82 1007.63
1001.61 998.06 995.49 995.77 995.24 994.82 994.32 995.70 995.62 995.32 995.17 995.00 994.32 994.01 992.86 992.19 991.54 991.66 991.92 992.82 994.22 995.56 996.61 997.67 998.56 999.47 1000.36 1001.15 1001.98 1002.78 1003.50 1004.19 1004.75 1005.15 1005.58 1005.87 1006.48 1006.72 1007.04 1007.25 1007.28 1007.40 1007.78 1007.75
1003.18 1000.08 995.92 995.14 993.84 992.76 993.50 993.81 994.51 994.89 994.80 994.40 993.97 993.27 992.76 992.50 991.51 991.39 991.77 992.82 994.23 995.39 996.44 997.68 998.64 999.65 1000.40 1001.12 1002.05 1002.91 1003.50 1004.11 1004.69 1005.07 1005.40 1005.76 1006.14 1006.60 1006.90 1007.11 1007.35 1007.52 1007.81 1007.91
1004.02 1001.17 997.26 994.25 993.94 993.35 993.15 993.13 994.08 993.91 994.49 994.46 993.99 993.14 992.63 992.27 992.01 992.35 991.97 993.15 994.30 995.26 996.25 997.35 998.51 999.53 1000.18 1001.01 1001.93 1002.78 1003.42 1003.92 1004.46 1004.81 1005.24 1005.67 1006.14 1006.48 1006.80 1007.03 1007.31 1007.63 1007.68 1007.86
1005.66 1001.79 997.69 994.72 994.30 993.64 992.76 993.48 993.77 994.19 993.75 994.04 993.96 993.07 992.19 992.32 992.20 992.67 992.81 993.71 994.60 995.25 996.26 997.27 998.33 999.16 999.95 1000.89 1001.78 1002.55 1003.24 1003.63 1004.13 1004.59 1005.10 1005.57 1006.04 1006.45 1006.76 1006.99 1007.32 1007.56 1007.70 1007.78
1006.37 1002.54 998.41 995.19 993.87 993.38 992.87 993.03 993.35 993.89 993.46 993.34 993.12 992.80 992.15 992.15 992.32 992.92 993.56 994.19 994.73 995.48 996.23 997.01 998.10 998.91 999.78 1000.81 1001.63 1002.29 1002.91 1003.46 1003.99 1004.37 1004.82 1005.34 1005.92 1006.34 1006.56 1006.94 1007.30 1007.50 1007.61 1007.69
1005.53 1002.25 999.62 997.60 996.28 995.07 993.13 993.07 992.98 993.48 993.58 993.08 992.97 993.00 992.50 991.86 992.65 993.27 993.81 994.34 994.85 995.41 996.21 996.93 997.79 998.62 999.64 1000.65 1001.48 1002.12 1002.75 1003.33 1003.93 1004.26 1004.70 1005.32 1005.88 1006.21 1006.61 1006.86 1007.20 1007.46 1007.60 1007.56
1005.07 1002.29 1000.02 998.31 997.20 995.95 994.10 993.26 993.32 993.67 993.74 993.56 993.53 992.95 992.68 992.77 993.32 993.77 994.11 994.60 994.80 995.21 996.01 996.87 997.58 998.40 999.42 1000.38 1001.20 1001.94 1002.57 1003.22 1003.85 1004.18 1004.61 1005.32 1005.78 1006.24 1006.68 1007.07 1007.24 1007.44 1007.55 1007.63
1005.37 1003.80 1000.56 997.88 997.06 996.25 995.15 993.57 993.69 994.15 994.23 994.32 993.50 993.52 993.65 993.71 994.00 994.19 994.61 994.73 994.65 995.03 995.53 996.44 997.26 998.09 999.20 1000.15 1000.97 1001.79 1002.39 1003.14 1003.73 1004.06 1004.67 1005.23 1005.73 1006.25 1006.72 1006.94 1007.14 1007.44 1007.64 1007.68
1005.62 1004.70 1001.33 998.09 997.03 996.46 995.42 995.45 994.59 994.46 995.87 995.93 995.70 995.19 994.78 995.86 996.01 995.87 995.40 995.07 994.45 994.76 995.44 996.08 997.04 997.95 999.11 1000.02 1000.87 1001.70 1002.28 1002.95 1003.48 1003.88 1004.47 1005.00 1005.46 1006.13 1006.62 1006.92 1007.20 1007.61 1007.85 1007.93
1005.69 1005.45 1003.04 999.16 997.54 996.63 996.70 997.16 996.82 996.23 997.71 998.00 997.47 997.16 996.71 996.72 996.77 996.01 996.22 995.52 994.15 994.26 995.35 996.24 997.05 997.78 998.82 999.82 1000.70 1001.44 1002.00 1002.64 1003.15 1003.59 1004.26 1004.79 1005.37 1006.00 1006.48 1006.83 1007.33 1007.61 1007.81 1008.06
1006.11 1005.55 1004.46 1000.26 998.03 997.42 998.33 998.67 998.63 998.29 998.38 999.44 999.28 998.57 998.00 997.72 996.35 995.78 997.04 996.73 995.81 994.51 995.09 995.93 996.90 997.88 998.53 999.53 1000.51 1001.16 1001.68 1002.23 1002.76 1003.30 1004.00 1004.61 1005.22 1005.82 1006.32 1006.87 1007.34 1007.68 1007.85 1008.06
1006.16 1005.66 1004.48 1001.84 999.02 999.62 1000.25 999.17 999.03 999.13 1000.31 1000.43 1000.13 999.60 999.01 998.53 998.22 997.51 997.37 996.80 996.38 995.56 995.10 995.81 996.65 997.65 998.38 999.28 1000.23 1000.84 1001.35 1001.91 1002.49 1003.12 1003.79 1004.50 1005.11 1005.72 1006.29 1006.97 1007.45 1007.66 1007.75 1008.09
1006.22 1005.75 1004.90 1003.60 1001.19 1001.37 1001.34 1000.40 1000.03 1001.52 1001.14 1000.92 1000.50 1000.02 999.53 999.19 998.52 997.72 997.12 996.61 996.13 995.38 995.09 995.62 996.38 997.28 998.30 999.01 999.88 1000.38 1001.00 1001.64 1002.24 1002.90 1003.57 1004.33 1005.01 1005.43 1006.13 1006.90 1007.42 1007.68 1008.00 1008.32
1007.10 1006.96 1006.13 1005.75 1004.52 1003.39 1002.52 1002.33 1002.44 1002.30 1001.67 1001.30 1000.75 1000.25 999.76 998.97 998.35 997.62 996.89 996.37 995.86 995.30 994.95 995.34 995.96 996.87 997.96 998.80 999.37 999.86 1000.62 1001.32 1001.90 1002.66 1003.45 1004.24 1004.95 1005.36 1005.95 1006.65 1007.24 1007.53 1007.98 1008.01
1007.50 1007.29 1006.87 1006.48 1005.47 1004.04 1003.73 1003.40 1003.42 1003.07 1002.42 1001.59 1000.83 1000.21 999.58 998.88 998.04 997.37 996.66 996.11 995.52 995.00 994.74 994.99 995.49 996.15 997.10 998.24 999.02 999.51 1000.24 1000.90 1001.53 1002.43 1003.33 1004.10 1004.72 1005.18 1005.76 1006.29 1006.87 1006.96 1007.37 1007.60
1007.84 1007.44 1007.16 1006.60 1005.78 1004.50 1003.79 1004.23 1004.12 1003.74 1003.00 1001.97 1000.99 1000.35 999.74 998.96 998.02 997.48 996.52 995.90 995.40 994.89 994.56 994.64 994.88 995.49 996.51 997.51 998.51 999.12 999.85 1000.40 1001.15 1002.15 1002.97 1003.73 1004.34 1005.06 1005.44 1005.74 1006.21 1006.55 1007.05 1007.27
1008.59 1008.19 1007.74 1007.23 1006.77 1006.02 1004.91 1004.61 1004.48 1004.10 1003.44 1002.58 1001.57 1000.35 999.70 999.05 998.32 997.64 996.75 995.93 995.37 994.92 994.31 994.37 994.75 995.11 995.84 996.71 997.66 998.49 999.20 1000.02 1000.78 1001.56 1002.31 1002.98 1003.47 1004.49 1004.79 1005.39 1006.36 1007.37 1007.59 1007.71
Thickness
5657 5648 5673 5710 5700 5700 5700 5706 5708 5724 5734 5717 5715 5718 5735 5746 5744 5740 5747 5754 5763 5770 5784 5786 5780 5778 5773 5769 5763 5754 5748 5740 5733 5724 5714 5702 5691 5686 5681 5675 5666 5658 5653 5646
5639 5653 5724 5700 5692 5689 5690 5695 5706 5720 5724 5715 5708 5706 5723 5729 5733 5743 5745 5757 5765 5771 5777 5783 5776 5768 5766 5763 5756 5749 5739 5731 5727 5720 5711 5702 5693 5686 5680 5673 5662 5656 5649 5640
5647 5714 5687 5694 5685 5687 5696 5691 5696 5695 5698 5702 5690 5688 5704 5724 5741 5752 5758 5763 5766 5771 5774 5778 5768 5764 5762 5757 5750 5743 5735 5725 5720 5714 5702 5692 5685 5678 5672 5666 5659 5653 5644 5637
5633 5680 5682 5679 5690 5695 5687 5697 5688 5685 5675 5673 5695 5669 5707 5724 5733 5742 5746 5754 5770 5774 5780 5776 5766 5758 5756 5752 5746 5738 5728 5720 5712 5705 5697 5688 5684 5677 5673 5662 5656 5647 5638 5633
5653 5650 5660 5676 5702 5693 5689 5692 5686 5682 5675 5670 5679 5670 5707 5723 5724 5736 5747 5761 5773 5780 5778 5773 5763 5757 5753 5746 5740 5731 5722 5714 5706 5699 5693 5685 5678 5673 5665 5657 5648 5640 5633 5630
5627 5652 5662 5690 5686 5694 5690 5679 5679 5679 5675 5657 5680 5682 5699 5721 5733 5742 5756 5766 5776 5772 5766 5765 5760 5753 5744 5741 5733 5725 5716 5707 5699 5693 5686 5680 5671 5664 5659 5652 5646 5639 5628 5625
5601 5620 5650 5672 5670 5682 5676 5669 5660 5649 5655 5655 5700 5689 5712 5735 5745 5750 5753 5765 5764 5761 5759 5756 5751 5746 5740 5734 5727 5719 5710 5699 5694 5688 5682 5675 5666 5659 5652 5647 5645 5636 5629 5624
5577 5595 5632 5664 5675 5678 5675 5677 5679 5655 5662 5681 5713 5684 5717 5742 5755 5764 5766 5766 5766 5757 5757 5755 5749 5743 5737 5729 5721 5715 5705 5695 5690 5684 5677 5671 5663 5661 5654 5646 5645 5640 5629 5630
5580 5606 5645 5656 5672 5683 5675 5677 5710 5691 5689 5685 5715 5713 5730 5743 5752 5760 5762 5764 5760 5756 5753 5750 5744 5739 5731 5724 5717 5710 5701 5693 5686 5680 5675 5667 5661 5655 5648 5643 5641 5639 5631 5632
5561 5587 5637 5647 5668 5680 5688 5697 5674 5688 5662 5665 5696 5702 5715 5737 5751 5759 5763 5761 5757 5753 5750 5745 5740 5733 5727 5720 5713 5705 5698 5690 5684 5679 5673 5666 5658 5653 5647 5642 5640 5638 5633 5633
5547 5573 5622 5636 5644 5671 5677 5678 5686 5690 5693 5678 5681 5702 5736 5735 5754 5759 5765 5762 5755 5752 5748 5741 5735 5729 5723 5718 5709 5700 5695 5688 5680 5676 5671 5665 5658 5652 5647 5643 5641 5638 5634 5632
5532 5561 5586 5630 5662 5680 5686 5686 5682 5675 5670 5694 5696 5701 5743 5746 5754 5753 5763 5759 5756 5754 5749 5742 5733 5727 5721 5714 5705 5697 5692 5686 5681 5676 5670 5663 5657 5652 5646 5644 5641 5638 5636 5634
5513 5559 5593 5625 5641 5660 5669 5676 5684 5690 5696 5683 5680 5696 5747 5747 5750 5750 5752 5752 5751 5751 5745 5740 5732 5725 5720 5712 5704 5697 5691 5687 5682 5676 5670 5663 5656 5651 5646 5645 5642 5639 5637 5635
5499 5546 5586 5626 5641 5658 5657 5669 5679 5677 5674 5690 5698 5705 5729 5739 5741 5744 5744 5746 5748 5746 5742 5738 5730 5725 5719 5711 5704 5697 5692 5687 5682 5677 5671 5664 5657 5652 5650 5647 5644 5641 5639 5637
5508 5550 5580 5595 5607 5626 5654 5661 5670 5667 5684 5689 5702 5704 5721 5742 5738 5739 5744 5744 5743 5742 5739 5735 5729 5725 5718 5710 5704 5697 5692 5687 5681 5676 5672 5664 5659 5655 5651 5648 5645 5642 5641 5640
5513 5548 5572 5582 5602 5615 5635 5658 5668 5673 5686 5693 5700 5705 5734 5738 5738 5735 5738 5737 5740 5741 5738 5733 5730 5725 5718 5711 5705 5698 5692 5687 5681 5677 5672 5666 5661 5656 5650 5647 5645 5642 5642 5642
5502 5518 5562 5584 5606 5610 5614 5650 5661 5668 5685 5689 5695 5711 5722 5720 5722 5727 5731 5735 5740 5742 5742 5735 5731 5727 5720 5713 5708 5698 5694 5689 5682 5679 5673 5667 5661 5655 5651 5649 5646 5642 5641 5642
5497 5502 5557 5597 5609 5586 5628 5643 5662 5673 5660 5672 5680 5688 5705 5699 5708 5716 5727 5731 5742 5744 5740 5738 5732 5729 5722 5716 5709 5702 5697 5690 5685 5681 5675 5670 5664 5657 5654 5650 5646 5642 5641 5641
5501 5494 5528 5578 5593 5622 5617 5619 5631 5654 5640 5651 5665 5679 5690 5697 5702 5714 5719 5731 5748 5749 5742 5737 5734 5732 5725 5717 5711 5704 5699 5693 5689 5684 5679 5675 5668 5661 5658 5653 5648 5646 5643 5641
5493 5505 5514 5580 5599 5602 5597 5609 5624 5640 5639 5641 5650 5664 5675 5685 5701 5720 5709 5718 5731 5750 5746 5740 5736 5730 5728 5721 5713 5705 5700 5696 5692 5689 5684 5680 5674 5667 5662 5657 5652 5649 5647 5644
5504 5506 5522 5562 5603 5589 5585 5612 5627 5626 5621 5631 5643 5656 5667 5674 5687 5701 5708 5717 5726 5738 5745 5744 5738 5729 5727 5725 5716 5707 5703 5698 5698 5695 5690 5684 5679 5672 5667 5660 5656 5653 5652 5648
5507 5520 5532 5546 5581 5574 5581 5602 5608 5596 5617 5628 5639 5652 5663 5673 5686 5699 5710 5717 5725 5735 5744 5743 5737 5731 5727 5727 5719 5712 5706 5705 5703 5699 5693 5686 5682 5678 5671 5664 5660 5658 5654 5651
5506 5499 5516 5517 5533 5554 5571 5580 5590 5602 5615 5625 5637 5650 5663 5675 5686 5698 5709 5718 5726 5734 5743 5745 5740 5734 5728 5726 5724 5717 5712 5709 5705 5700 5694 5688 5683 5681 5676 5669 5665 5663 5659 5659
5490 5496 5502 5505 5522 5550 5559 5571 5580 5593 5607 5623 5637 5650 5662 5672 5687 5697 5709 5719 5727 5736 5742 5746 5743 5738 5731 5727 5725 5723 5719 5714 5708 5700 5695 5690 5685 5683 5680 5676 5673 5672 5668 5667
5490 5497 5498 5503 5526 5545 5559 5562 5571 5584 5600 5617 5634 5646 5657 5670 5684 5694 5708 5717 5726 5734 5742 5747 5746 5742 5736 5732 5726 5726 5722 5719 5710 5703 5698 5693 5690 5685 5683 5683 5682 5680 5678 5677
5475 5483 5491 5499 5509 5523 5543 5556 5566 5576 5590 5607 5623 5640 5655 5666 5678 5690 5702 5715 5724 5731 5742 5744 5745 5744 5741 5737 5731 5728 5727 5721 5714 5706 5702 5699 5697 5690 5690 5688 5683 5670 5673 5674